{"data":{"norad_id":65686,"epoch":"2026-05-24T23:20:14.598816Z","epoch_age_seconds":80518,"freshness":"FRESH","line1":"1 65686U 25212L   26144.97239119  .00024223  00000+0  82691-3 0  9992","line2":"2 65686  53.1596 341.2996 0000991  81.4441 278.6672 15.30214897 39018","mean_motion":15.30214897,"eccentricity":9.91e-5,"inclination_deg":53.1596,"raan_deg":341.2996,"arg_perigee_deg":81.4441,"mean_anomaly_deg":278.6672,"bstar":0.00082691,"rev_number":3901,"period_min":94.104429568888,"perigee_km":474.49142724121,"apogee_km":475.84975280555,"semimajor_km":6853.3075900234,"source":"CELESTRAK","updated_at":"2026-05-25T13:38:20.895551Z"}}